Regional Weather Roundup
Issued by NWS

Home | Current Version | Previous Version | Graphics & Text | Print | Product List | Glossary On
Versions: 1 2 3 4 5 6 7 8 9 10 11 12 13 14 15 16 17 18 19 20 21 22 23 24 25 26 27 28 29 30 31 32 33 34 35 36 37 38 39 40 41 42 43 44 45 46 47 48 49 50
000
ASUS43 KMPX 300910
RWRMN
WEATHER ROUNDUP FOR MINNESOTA
NATIONAL WEATHER SERVICE TWIN CITIES/CHANHASSEN MN
400 AM CDT SAT MAY 30 2015


NOTE: "FAIR" INDICATES FEW OR NO CLOUDS BELOW 12,000 FEET WITH NO
SIGNIFICANT WEATHER AND/OR OBSTRUCTIONS TO VISIBILITY. N/A MEANS
CURRENT SKY AND/OR WEATHER CONDITIONS ARE NOT AVAILABLE.

MNZ060>063-068>070-301000-
   Twin Cities Metro

CITY           SKY/WX    TMP DP  RH WIND       PRES   REMARKS
TWIN CITIES    MOCLDY    50  41  71 N9        30.12R
ST PAUL        CLOUDY    50  42  74 N14G23    30.12R
CRYSTAL        CLEAR     50  40  68 N13G21    30.11R
BLAINE         CLEAR     48  43  81 N12       30.13R
LAKEVILLE      CLOUDY    48  43  81 N15       30.11R
EDEN PRAIRIE   MOCLDY    50  41  71 N10       30.11R
SOUTH ST PAUL  CLOUDY    51  42  70 N14G21    30.11R
LAKE ELMO      CLOUDY    50  43  76 N13G22    30.11S
$$
MNZ001>005-007-008-013>017-022>024-027-028-301000-
   Northwest Minnesota

CITY           SKY/WX    TMP DP  RH WIND       PRES   REMARKS
BEMIDJI        CLEAR     36  33  90 NW7       30.26S
HALLOCK        CLEAR     34  25  69 N9        30.37S WCI  26
ROSEAU         CLEAR     32  27  80 N6        30.34R WCI  26
WARROAD        MOCLDY    32  28  86 NW6       30.33R WCI  26
THIEF RVR FALL CLEAR     34  27  75 N12       30.33R WCI  25
CROOKSTON      CLEAR     34  28  80 N9        30.35R WCI  26
FOSSTON        CLEAR     32  28  86 N14       30.30R WCI  22
DETROIT LAKES  CLEAR     36  34  93 N7        30.28R
MOORHEAD       CLEAR     36  30  80 N14       30.32R
PARK RAPIDS    CLEAR     39  33  79 N12       30.24R
MAHNOMEN       FAIR      34  31  90 N9        30.29S WCI  26
$$
MNZ006-009>011-018-025>026-301000-
   North Central Minnesota

CITY           SKY/WX    TMP DP  RH WIND       PRES   REMARKS
BAUDETTE       CLOUDY    38  28  67 N13       30.29R
FLAG ISLAND    CLOUDY    37  27  65 N18G25    30.31S
INTL FALLS     CLOUDY    37  29  72 N12       30.25R
WASKISH        CLOUDY    37  34  87 N5        30.28R
BIG FORK       CLEAR     37  30  75 N5        30.24R
LONGVILLE      PTCLDY    41  37  87 CALM      30.21S
GRAND RAPIDS   CLEAR     39  30  70 N10       30.20R
CRANE LAKE     MOCLDY    39  34  81 NW10G17   30.23R
ORR            MOCLDY    39  32  75 NW3       30.19R
COOK           CLEAR     37  34  87 CALM      30.20R
WALKER         FAIR      38  35  89 NW5       30.24R
$$
MNZ012-019>021-037-301000-
   Northeast Minnesota

CITY           SKY/WX    TMP DP  RH WIND       PRES   REMARKS
DULUTH         PTCLDY    44  36  73 N10       30.13R
HIBBING        CLEAR     40  34  79 N12       30.18R
EVELETH        CLEAR     39  34  81 N7        30.18R
DULUTH HARBOR  CLEAR     48  43  81 N12       30.15R
TWO HARBORS    CLEAR     46  39  76 N6        30.11R
SILVER BAY     CLEAR     46  37  71 N6        30.10R
GRAND MARAIS     N/A     49  35  58 N13G30    30.08R
G MARAIS ARPRT PTCLDY    41  30  65 N13G24    30.10R
$$
MNZ029>031-032-039>041-046>048-054>057-064-301000-
   West Central Minnesota

CITY           SKY/WX    TMP DP  RH WIND       PRES   REMARKS
FERGUS FALLS   CLEAR     39  30  70 N10G17    30.27S
WHEATON        PTCLDY    37  30  75 NW15      30.28S
MORRIS         PTCLDY    43  37  81 N14       30.22R
ALEXANDRIA     CLEAR     43  36  76 N12G22    30.22R
ELBOW LAKE     FAIR      40  35  81 N13       30.24S
WADENA         CLEAR     37  34  87 N8        30.23R
GLENWOOD       CLEAR     43  37  81 N12       30.21R
APPLETON       PTCLDY    45  37  76 N12       30.22S
BENSON         CLEAR     43  39  87 N7        30.21S
ORTONVILLE     PTCLDY    43  36  75 N18       30.24R
MADISON          N/A     43  37  81 N16       30.23R
WILLMAR        FAIR      46  41  81 N9G16     30.20R
$$
MNZ033>034-036-042>043-049>051-058-059-301000-
   Central Minnesota

CITY           SKY/WX    TMP DP  RH WIND       PRES   REMARKS
ST CLOUD       CLEAR     44  38  79 N7        30.16R
SAUK CENTRE    FAIR      43  38  82 N8        30.20R
PAYNESVILLE    CLEAR     41  38  89 NW3       30.19R
AITKIN         PTCLDY    43  36  75 NW7       30.17S
PINE RIVER     PTCLDY    43  36  75 N9        30.24R
BRAINERD       PTCLDY    44  35  70 N12       30.20R
STAPLES        PTCLDY    39  36  87 N10       30.21S
LONG PRAIRIE   FAIR      41  36  81 NW6       30.20S
LITTLE FALLS   PTCLDY    45  34  65 N3        30.19R
LITCHFIELD     CLEAR     46  43  87 N10       30.17S
BUFFALO        CLEAR     47  40  78 N9        30.16R
MAPLE LAKE     CLEAR     47  42  83 N9        30.17R
$$
MNZ037-044-045-052-053-301000-
   East Central Minnesota

CITY           SKY/WX    TMP DP  RH WIND       PRES   REMARKS
PRINCETON      CLEAR     46  39  76 N7        30.16R
MORA           CLEAR     43  37  81 N5        30.17R
CAMBRIDGE      CLEAR     48  37  66 N8        30.13S
RUSH CITY      PTCLDY    45  38  77 N9        30.14R
MOOSE LAKE     PTCLDY    43  36  75 N8        30.14S
HINCKLEY       FAIR      45  37  76 N8        30.14S
CLOQUET        CLEAR     43  34  70 NW8       30.15R
MCGREGOR       PTCLDY    43  36  75 N12       30.18R
$$
MNZ071>073-080-081-089-090-097-098-301000-
   Southwest Minnesota

CITY           SKY/WX    TMP DP  RH WIND       PRES   REMARKS
MONTEVIDEO     CLEAR     45  41  87 N12       30.22R
GRANITE FALLS  CLEAR     45  40  85 NW10      30.21R
CANBY          CLEAR     42  38  84 N12       30.23S
MARSHALL       CLEAR     43  36  75 N14       30.19R
REDWOOD FALLS  CLEAR     47  42  83 N9        30.17R
OLIVIA         CLEAR     45  39  81 N8        30.17S
PIPESTONE      MOCLDY    45  39  81 NE12G20   30.18R
WINDOM         PTCLDY    46  43  87 N16       30.14S
WORTHINGTON    PTCLDY    46  39  76 N17G23    30.14S
JACKSON        PTCLDY    48  45  87 N14G25    30.12R
TRACY          CLEAR     45  42  91 N12       30.19R
SLAYTON        PTCLDY    43  42  95 N18G24    30.17R
$$
MNZ065>067-074>077-082>085-091>093-301000-
   South Central Minnesota

CITY           SKY/WX    TMP DP  RH WIND       PRES   REMARKS
MANKATO        CLOUDY    52  43  71 N20G25    30.10S
NEW ULM        PTCLDY    48  43  81 N9        30.13S
ST JAMES       CLEAR     50  46  87 N15       30.13S
FAIRMONT       PTCLDY    50  43  76 N17       30.09R
GLENCOE        CLEAR     48  43  81 N8        30.13R
FARIBAULT      CLOUDY    52  46  82 N10       30.09R
OWATONNA       CLOUDY    52  46  82 N20       30.07S
WASECA         CLOUDY    52  46  82 N14G25    30.09R
ALBERT LEA     CLOUDY    52  52 100 N13G22    30.05R
$$
MNZ078>079-086>088-094>096-301000-
   Southeast Minnesota

CITY           SKY/WX    TMP DP  RH WIND       PRES   REMARKS
ROCHESTER      LGT RAIN  53  51  93 N16       30.03R
RED WING       CLOUDY    54  48  82 N14       30.07R
STANTON        CLOUDY    52  45  76 N17       30.08R
DODGE CENTER   DRIZZLE   52  50  93 N15       30.05R
WINONA         CLOUDY    55  54  94 N6G18     30.01R
AUSTIN         CLOUDY    52  50  93 N14G23    30.03R
PRESTON        CLOUDY    54  52  94 N18       30.00R
$$
ABBREVIATIONS USED IN REMARKS
   TC - TEMPERATURES IN CELSIUS
  WCI - WIND CHILL INDEX
   HX - HEAT INDEX
  VSB - VISIBILITY
$$



USA.gov is the U.S. government's official web portal to all federal, state and local government web resources and services.